IK1WHN-5 Weather Reports


time (UTC)temp
C
wind
direction
speed
KPH
gust
KPH
rain 1hr
cm
rain 24hr
cm
rain mn
cm
humidity
%
barometer
mb
20260507224104 -17 355 6.4 14.5 0.00 0.00 0.00 86 1013.7
20260507223602 -17 190 1.6 11.3 0.00 0.00 0.00 86 1013.7
20260507223103 -17 0 6.4 12.9 0.00 0.00 0.00 86 1013.7
20260507222602 -17 354 9.7 11.3 0.00 0.00 0.00 86 1013.6
20260507222103 -17 349 9.7 14.5 0.00 0.00 0.00 86 1013.7
20260507221602 -17 359 8.0 14.5 0.00 0.00 0.00 86 1013.7
20260507221103 -17 67 6.4 11.3 0.00 0.00 0.00 86 1013.6
20260507220602 -17 3 3.2 9.7 0.00 0.00 0.00 86 1013.7
20260507220104 -17 2 4.8 8.0 0.00 0.00 0.00 86 1013.5
20260507215103 -17 356 3.2 4.8 0.00 0.00 0.00 87 1013.7
20260507214604 -17 357 6.4 8.0 0.00 0.00 0.00 87 1013.7
20260507214102 -17 48 0.0 11.3 0.00 0.00 0.00 87 1013.6
20260507213604 -17 322 6.4 6.4 0.00 0.00 0.00 87 1013.5
20260507213102 -17 337 3.2 8.0 0.00 0.00 0.00 87 1013.3
20260507212602 -17 342 0.0 6.4 0.00 0.00 0.00 87 1013.5
20260507212103 -17 31 0.0 9.7 0.00 0.00 0.00 87 1013.5
20260507211603 -17 0 0.0 8.0 0.00 0.00 0.00 87 1013.7
20260507211103 -17 352 3.2 11.3 0.00 0.00 0.00 87 1013.6
20260507210604 -17 350 0.0 8.0 0.00 0.00 0.00 87 1013.2
20260507205602 -17 0 4.8 11.3 0.00 0.00 0.00 87 1013.3
20260507205102 -17 359 9.7 9.7 0.00 0.00 0.00 87 1013.5
20260507204603 -17 307 3.2 9.7 0.00 0.00 0.00 86 1013.3
20260507204104 -17 350 6.4 9.7 0.00 0.00 0.00 86 1013.5
20260507203603 -17 317 6.4 6.4 0.00 0.00 0.00 86 1013.5
20260507203103 -17 0 0.0 6.4 0.00 0.00 0.00 86 1013.6
20260507202602 -17 45 0.0 8.0 0.00 0.00 0.00 86 1013.5
20260507202103 -17 340 4.8 6.4 0.00 0.00 0.00 86 1013.2
20260507201603 -17 7 1.6 8.0 0.00 0.00 0.00 86 1013.2
20260507201103 -17 10 1.6 9.7 0.00 0.00 0.00 86 1013.1
20260507195602 -17 4 1.6 12.9 0.00 0.00 0.00 86 1012.8
20260507194603 -17 349 3.2 6.4 0.00 0.00 0.00 85 1012.8
20260507194103 -17 29 0.0 6.4 0.00 0.00 0.00 85 1013.0
20260507193602 -17 0 1.6 6.4 0.00 0.00 0.00 85 1012.8
20260507193102 -17 7 3.2 6.4 0.00 0.00 0.00 85 1013.0
20260507192602 -17 313 4.8 8.0 0.00 0.00 0.00 85 1013.1
20260507192103 -17 0 4.8 11.3 0.00 0.00 0.00 84 1013.0
20260507191603 -17 55 3.2 9.7 0.00 0.00 0.00 84 1012.7
20260507191102 -17 288 4.8 6.4 0.00 0.00 0.00 84 1012.7
20260507190603 -17 353 8.0 9.7 0.00 0.00 0.00 83 1012.7
20260507185603 -17 346 8.0 8.0 0.00 0.00 0.00 83 1012.6
20260507185103 -17 353 9.7 9.7 0.00 0.00 0.00 83 1012.7
20260507184603 -17 24 4.8 12.9 0.00 0.00 0.00 83 1012.7
20260507184102 -17 0 3.2 9.7 0.00 0.00 0.00 83 1012.6
20260507183604 -17 343 3.2 8.0 0.00 0.00 0.00 82 1012.8
20260507183103 -17 325 1.6 3.2 0.00 0.00 0.00 82 1012.7
20260507182602 -17 286 0.0 1.6 0.00 0.00 0.00 82 1012.7
20260507182102 -17 270 0.0 1.6 0.00 0.00 0.00 81 1012.7
20260507181603 -17 180 0.0 3.2 0.00 0.00 0.00 80 1012.8
20260507180603 -17 90 0.0 1.6 0.00 0.00 0.00 78 1012.7
20260507175603 -17 162 3.2 3.2 0.00 0.00 0.00 78 1012.8
20260507175103 -17 270 0.0 0.0 0.00 0.00 0.00 78 1012.7
20260507174603 -17 279 0.0 3.2 0.00 0.00 0.00 77 1012.7
20260507174102 -17 300 1.6 3.2 0.00 0.00 0.00 76 1012.8
20260507173603 -17 194 3.2 6.4 0.00 0.00 0.00 75 1012.7
20260507173102 -17 180 1.6 4.8 0.00 0.00 0.00 75 1012.7
20260507172602 -17 203 1.6 4.8 0.00 0.00 0.00 74 1012.7
20260507172104 -17 248 4.8 4.8 0.00 0.00 0.00 72 1012.7
20260507171604 -17 251 3.2 6.4 0.00 0.00 0.00 68 1012.6
20260507171103 -17 152 3.2 3.2 0.00 0.00 0.00 66 1012.6
20260507170602 -17 212 8.0 8.0 0.00 0.00 0.00 66 1012.7
20260507165603 -17 225 3.2 8.0 0.00 0.00 0.00 68 1012.7
20260507165102 -17 219 3.2 6.4 0.00 0.00 0.00 69 1012.5
20260507164602 -17 162 3.2 9.7 0.00 0.00 0.00 70 1012.7
20260507164104 -17 156 3.2 8.0 0.00 0.00 0.00 68 1012.7
20260507163603 -17 122 6.4 9.7 0.00 0.00 0.00 69 1012.5
20260507163105 -17 142 6.4 11.3 0.00 0.00 0.00 67 1012.5
20260507162605 -17 183 3.2 6.4 0.00 0.00 0.00 68 1012.7
20260507162102 -17 125 3.2 11.3 0.00 0.00 0.00 67 1012.6
20260507161603 -17 168 3.2 9.7 0.00 0.00 0.00 68 1012.7
20260507161102 -17 202 4.8 8.0 0.00 0.00 0.00 68 1012.5
20260507160603 -17 180 3.2 9.7 0.00 0.00 0.00 70 1012.7
20260507160104 -17 128 4.8 6.4 0.00 0.00 0.00 72 1012.7
20260507155603 -17 115 4.8 11.3 0.00 0.00 0.00 74 1012.7
20260507155104 -17 125 4.8 20.9 0.00 0.00 0.00 72 1012.8
20260507154603 -17 116 9.7 14.5 0.00 0.00 0.00 72 1012.8
20260507154103 -17 103 3.2 11.3 0.00 0.00 0.00 71 1012.7
20260507153603 -17 106 6.4 16.1 0.00 0.00 0.00 70 1012.8
20260507153102 -17 160 16.1 17.7 0.00 0.00 0.00 72 1012.7
20260507152606 -17 184 14.5 17.7 0.00 0.00 0.00 73 1012.7
20260507152102 -17 189 9.7 16.1 0.00 0.00 0.00 71 1012.7
20260507151603 -17 143 14.5 14.5 0.00 0.00 0.00 70 1012.7
20260507151103 -17 176 4.8 12.9 0.00 0.00 0.00 72 1012.7
20260507150603 -17 173 9.7 12.9 0.00 0.00 0.00 70 1012.7
20260507145603 -17 170 6.4 17.7 0.00 0.00 0.00 73 1012.7
20260507145104 -17 199 4.8 9.7 0.00 0.00 0.00 72 1012.7
20260507144602 -17 116 9.7 16.1 0.00 0.00 0.00 73 1012.8
20260507144103 -17 116 14.5 14.5 0.00 0.00 0.00 71 1012.7
20260507143603 -17 119 8.0 12.9 0.00 0.00 0.00 72 1012.8
20260507143103 -17 171 9.7 12.9 0.00 0.00 0.00 72 1012.8
20260507142603 -17 124 19.3 24.1 0.00 0.00 0.00 73 1013.0
20260507142102 -17 107 9.7 20.9 0.00 0.00 0.00 71 1013.2
20260507141602 -17 111 14.5 14.5 0.00 0.00 0.00 72 1013.2
20260507141102 -17 214 6.4 17.7 0.00 0.00 0.00 72 1013.0
20260507140603 -17 156 4.8 17.7 0.00 0.00 0.00 74 1013.2
20260507140103 -17 133 8.0 20.9 0.00 0.00 0.00 75 1012.8
20260507135603 -17 154 16.1 25.7 0.00 0.00 0.00 74 1013.1
20260507135103 -17 184 11.3 19.3 0.00 0.00 0.00 73 1013.2
20260507134602 -17 110 14.5 17.7 0.00 0.00 0.00 73 1013.2
20260507134103 -17 180 11.3 22.5 0.00 0.00 0.00 73 1013.2
20260507133604 -17 159 3.2 19.3 0.00 0.00 0.00 72 1013.1
20260507133102 -17 166 8.0 14.5 0.00 0.00 0.00 74 1013.1
20260507132604 -17 177 20.9 27.4 0.00 0.00 0.00 74 1013.1
20260507132103 -17 169 14.5 24.1 0.00 0.00 0.00 74 1013.2
20260507131604 -17 142 12.9 24.1 0.00 0.00 0.00 74 1013.2
20260507131102 -17 168 12.9 22.5 0.00 0.00 0.00 74 1013.3
20260507130603 -17 180 9.7 16.1 0.00 0.00 0.00 75 1013.2
20260507125602 -17 192 6.4 20.9 0.00 0.00 0.00 75 1013.0
20260507125102 -17 132 4.8 25.7 0.00 0.00 0.00 76 1013.5
20260507124602 -17 189 25.7 32.2 0.00 0.00 0.00 74 1013.1
20260507124102 -17 170 30.6 30.6 0.00 0.00 0.00 73 1013.0
20260507123603 -17 172 11.3 22.5 0.00 0.00 0.00 70 1013.2
20260507123102 -17 148 4.8 24.1 0.00 0.00 0.00 69 1013.2
20260507122602 -17 192 16.1 22.5 0.00 0.00 0.00 66 1013.0
20260507122103 -17 133 9.7 9.7 0.00 0.00 0.00 68 1012.8
20260507121603 -17 180 6.4 24.1 0.00 0.00 0.00 69 1013.0
20260507121103 -17 127 12.9 22.5 0.00 0.00 0.00 68 1013.0
20260507120602 -17 161 8.0 17.7 0.00 0.00 0.00 67 1013.0
20260507115602 -17 156 8.0 14.5 0.00 0.00 0.00 71 1013.1
20260507115102 -17 93 6.4 9.7 0.00 0.00 0.00 72 1013.1
20260507114603 -17 192 22.5 24.1 0.00 0.00 0.00 71 1013.3
20260507114102 -17 220 3.2 29.0 0.00 0.00 0.00 72 1013.3
20260507113603 -17 131 9.7 22.5 0.00 0.00 0.00 70 1013.2
20260507113103 -17 90 4.8 32.2 0.00 0.00 0.00 72 1013.2
20260507112603 -17 138 17.7 25.7 0.00 0.00 0.00 71 1013.5
20260507112102 -17 135 16.1 25.7 0.00 0.00 0.00 71 1013.2
20260507111602 -17 157 9.7 29.0 0.00 0.00 0.00 69 1013.2
20260507111102 -17 181 8.0 20.9 0.00 0.00 0.00 68 1013.2
20260507110602 -17 165 14.5 25.7 0.00 0.00 0.00 70 1013.2
20260507105602 -17 88 16.1 24.1 0.00 0.00 0.00 68 1013.2
20260507105102 -17 124 11.3 12.9 0.00 0.00 0.00 67 1013.0
20260507104603 -17 159 8.0 17.7 0.00 0.00 0.00 70 1013.2
20260507104103 -17 117 6.4 17.7 0.00 0.00 0.00 71 1013.5
20260507103603 -17 158 8.0 25.7 0.00 0.00 0.00 71 1013.3
20260507103104 -17 112 12.9 19.3 0.00 0.00 0.00 72 1013.3
20260507102603 -17 90 8.0 27.4 0.00 0.00 0.00 74 1013.3
20260507102102 -17 98 12.9 25.7 0.00 0.00 0.00 71 1013.6
20260507101602 -17 111 9.7 20.9 0.00 0.00 0.00 70 1013.5
20260507101102 -17 206 1.6 16.1 0.00 0.00 0.00 71 1013.3
20260507100603 -17 161 11.3 17.7 0.00 0.00 0.00 70 1013.2
20260507095602 -17 146 9.7 24.1 0.00 0.00 0.00 68 1013.5
20260507095103 -17 165 8.0 24.1 0.00 0.00 0.00 68 1013.3
20260507094603 -17 147 8.0 16.1 0.00 0.00 0.00 67 1013.2
20260507094103 -17 108 0.0 22.5 0.00 0.00 0.00 68 1013.3
20260507093603 -17 181 8.0 11.3 0.00 0.00 0.00 66 1013.2
20260507093103 -17 120 3.2 14.5 0.00 0.00 0.00 67 1013.2
20260507092603 -17 125 9.7 24.1 0.00 0.00 0.00 67 1013.3
20260507092102 -17 163 4.8 22.5 0.00 0.00 0.00 66 1013.3
20260507091602 -17 144 3.2 16.1 0.00 0.00 0.00 68 1013.3
20260507091103 -17 123 12.9 17.7 0.00 0.00 0.00 66 1013.3
20260507090602 -17 183 3.2 14.5 0.00 0.00 0.00 70 1013.2
20260507085603 -17 152 19.3 24.1 0.00 0.00 0.00 70 1013.2
20260507085103 -17 134 8.0 22.5 0.00 0.00 0.00 70 1013.2
20260507084603 -17 113 20.9 27.4 0.00 0.00 0.00 69 1013.1
20260507084102 -17 190 6.4 16.1 0.00 0.00 0.00 68 1013.0
20260507083603 -17 115 9.7 14.5 0.00 0.00 0.00 69 1013.0
20260507083102 -17 118 14.5 27.4 0.00 0.00 0.00 69 1013.0
20260507082603 -17 130 11.3 20.9 0.00 0.00 0.00 69 1013.0
20260507082103 -17 146 11.3 20.9 0.00 0.00 0.00 72 1013.0
20260507081602 -17 125 6.4 14.5 0.00 0.00 0.00 71 1012.8
20260507081102 -17 180 6.4 16.1 0.00 0.00 0.00 69 1012.7
20260507080603 -17 132 6.4 6.4 0.00 0.00 0.00 72 1013.2
20260507075603 -17 59 0.0 6.4 0.00 0.00 0.00 74 1012.7
20260507075102 -17 0 1.6 1.6 0.00 0.00 0.00 78 1012.7
20260507074603 -17 105 3.2 3.2 0.00 0.00 0.00 79 1012.8
20260507074103 -17 327 3.2 3.2 0.00 0.00 0.00 79 1012.8
20260507073602 -17 294 0.0 1.6 0.00 0.00 0.00 79 1012.7
20260507073102 -17 297 1.6 6.4 0.00 0.00 0.00 78 1012.8
20260507072602 -17 350 3.2 8.0 0.00 0.00 0.00 79 1012.8
20260507072104 -17 354 1.6 6.4 0.00 0.00 0.00 78 1012.8
20260507071604 -17 17 3.2 8.0 0.00 0.00 0.00 75 1012.6
20260507071103 -17 358 3.2 8.0 0.00 0.00 0.00 74 1012.7
20260507070602 -17 0 3.2 8.0 0.00 0.00 0.00 73 1012.8
20260507065602 -17 348 1.6 8.0 0.00 0.00 0.00 74 1012.7
20260507065103 -17 17 3.2 6.4 0.00 0.00 0.00 77 1012.6
20260507064602 -17 337 6.4 8.0 0.00 0.00 0.00 78 1012.7
20260507064103 -17 0 0.0 3.2 0.00 0.00 0.00 80 1012.6
20260507063603 -17 342 1.6 3.2 0.00 0.00 0.00 80 1012.7
20260507063103 -17 353 3.2 11.3 0.00 0.00 0.00 80 1012.5
20260507062602 -17 357 6.4 11.3 0.00 0.00 0.00 79 1012.6
20260507062102 -17 323 1.6 9.7 0.00 0.00 0.00 78 1012.5
20260507061602 -17 349 4.8 9.7 0.00 0.00 0.00 77 1012.2
20260507061103 -17 356 0.0 8.0 0.00 0.00 0.00 77 1012.3
20260507060602 -17 96 1.6 11.3 0.00 0.00 0.00 79 1012.6
20260507055603 -17 7 3.2 9.7 0.00 0.00 0.00 80 1012.5
20260507055103 -17 322 6.4 9.7 0.00 0.00 0.00 81 1012.2
20260507054603 -17 1 6.4 16.1 0.00 0.00 0.00 81 1012.3
20260507054102 -17 294 6.4 11.3 0.00 0.00 0.00 82 1012.2
20260507053604 -17 356 8.0 12.9 0.00 0.00 0.00 82 1012.3
20260507053103 -17 329 6.4 14.5 0.00 0.00 0.00 82 1012.2
20260507052603 -17 348 8.0 9.7 0.00 0.00 0.00 83 1012.1
20260507052103 -17 337 3.2 9.7 0.00 0.00 0.00 83 1012.1
20260507051603 -17 0 1.6 11.3 0.00 0.00 0.00 83 1012.2
20260507051102 -17 33 4.8 12.9 0.00 0.00 0.00 83 1012.2
20260507050602 -17 357 3.2 6.4 0.00 0.00 0.00 84 1011.8
20260507045603 -17 0 1.6 11.3 0.00 0.00 0.00 85 1011.7
20260507045102 -17 325 4.8 9.7 0.00 0.00 0.00 84 1012.1
20260507044602 -17 352 6.4 9.7 0.00 0.00 0.00 84 1011.7
20260507044102 -17 346 1.6 9.7 0.00 0.00 0.00 85 1011.8
20260507043602 -17 299 3.2 9.7 0.00 0.00 0.00 85 1011.7
20260507043105 -17 351 4.8 12.9 0.00 0.00 0.00 85 1011.7
20260507042603 -17 342 1.6 6.4 0.00 0.00 0.00 85 1011.7
20260507042102 -17 300 1.6 9.7 0.00 0.00 0.00 85 1011.7
20260507041604 -17 331 3.2 9.7 0.00 0.00 0.00 85 1011.7
20260507041103 -17 3 8.0 9.7 0.00 0.00 0.00 86 1011.8
20260507040604 -17 12 1.6 6.4 0.00 0.00 0.00 86 1011.7
20260507035603 -17 326 6.4 9.7 0.00 0.00 0.00 86 1011.5
20260507035102 -17 324 6.4 8.0 0.00 0.00 0.00 87 1011.6
20260507034602 -17 23 0.0 3.2 0.00 0.00 0.00 87 1011.6
20260507034102 -17 81 1.6 6.4 0.00 0.00 0.00 87 1011.5
20260507033603 -17 324 4.8 4.8 0.00 0.00 0.00 87 1011.7
20260507032602 -17 315 3.2 4.8 0.00 0.00 0.00 87 1011.5
20260507032103 -17 328 4.8 6.4 0.00 0.00 0.00 87 1011.5
20260507031602 -17 0 1.6 1.6 0.00 0.00 0.00 87 1011.7
20260507031103 -17 97 3.2 3.2 0.00 0.00 0.00 87 1011.7
20260507030603 -17 0 3.2 6.4 0.00 0.00 0.00 87 1011.5
20260507025603 -17 355 6.4 9.7 0.00 0.00 0.00 87 1011.3
20260507025103 -17 323 3.2 4.8 0.00 0.00 0.00 87 1011.6
20260507024602 -17 327 3.2 8.0 0.00 0.00 0.00 87 1011.6
20260507024102 -17 0 1.6 6.4 0.00 0.00 0.00 87 1011.5
20260507023602 -17 318 4.8 9.7 0.00 0.00 0.00 87 1011.7
20260507023103 -17 0 1.6 3.2 0.00 0.00 0.00 87 1011.6
20260507022602 -17 346 0.0 1.6 0.00 0.00 0.00 87 1011.6
20260507022103 -17 330 1.6 1.6 0.00 0.00 0.00 87 1011.6
20260507021603 -17 311 0.0 3.2 0.00 0.00 0.00 87 1011.6
20260507021103 -17 340 6.4 6.4 0.00 0.00 0.00 87 1011.5
20260507020603 -17 329 6.4 6.4 0.00 0.00 0.00 87 1011.7
20260507015602 -17 352 0.0 8.0 0.00 0.00 0.00 87 1011.8
20260507015103 -17 324 4.8 6.4 0.00 0.00 0.00 87 1011.5
20260507014603 -17 324 4.8 6.4 0.00 0.00 0.00 87 1011.5
20260507014102 -17 348 3.2 6.4 0.00 0.00 0.00 87 1011.2
20260507013602 -17 351 6.4 6.4 0.00 0.00 0.00 87 1011.6
20260507012603 -17 54 1.6 4.8 0.00 0.00 0.00 87 1011.7
20260507012103 -17 347 4.8 4.8 0.00 0.00 0.00 87 1011.5
20260507011602 -17 324 4.8 6.4 0.00 0.00 0.00 87 1011.7
20260507011103 -17 321 3.2 3.2 0.00 0.00 0.00 87 1011.6
20260507010603 -17 304 3.2 3.2 0.00 0.00 0.00 86 1011.7
20260507005602 -17 0 3.2 8.0 0.00 0.00 0.00 87 1011.7
20260507005102 -17 285 4.8 6.4 0.00 0.00 0.00 87 1011.7
20260507004603 -17 300 1.6 3.2 0.00 0.00 0.00 87 1012.0
20260507004104 -17 334 1.6 4.8 0.00 0.00 0.00 87 1011.7
20260507003602 -17 29 1.6 6.4 0.00 0.00 0.00 86 1011.5
20260507003102 -17 352 1.6 4.8 0.00 0.00 0.00 86 1011.5
20260507002603 -17 331 4.8 8.0 0.00 0.00 0.00 86 1011.6
20260507002103 -17 343 6.4 8.0 0.00 0.00 0.00 86 1011.6
20260507001602 -17 0 3.2 6.4 0.00 0.00 0.00 86 1011.6
20260507001102 -17 323 4.8 6.4 0.00 0.00 0.00 86 1011.7
20260507000602 -17 339 3.2 6.4 0.00 0.00 0.00 86 1011.5
20260506235602 -17 15 6.4 8.0 0.00 0.00 0.00 87 1011.8
20260506235102 -17 354 4.8 9.7 0.00 0.00 0.00 87 1011.7
20260506234603 -17 301 3.2 8.0 0.00 0.00 0.00 87 1011.7
20260506234102 -17 353 1.6 6.4 0.00 0.00 0.00 87 1011.6
20260506233602 -17 0 6.4 11.3 0.00 0.00 0.00 87 1011.7
20260506233103 -17 324 1.6 4.8 0.00 0.00 0.00 87 1011.8
20260506232603 -17 261 0.0 1.6 0.00 0.00 0.00 87 1012.0
20260506232102 -17 252 3.2 3.2 0.00 0.00 0.00 87 1011.8
20260506231603 -17 319 0.0 3.2 0.00 0.00 0.00 87 1012.1
20260506231103 -17 333 3.2 9.7 0.00 0.00 0.00 87 1011.8
20260506230603 -17 26 3.2 9.7 0.00 0.00 0.00 87 1011.7
20260506225603 -17 323 4.8 4.8 0.00 0.00 0.00 87 1011.7
20260506225103 -17 355 1.6 6.4 0.00 0.00 0.00 86 1011.7
20260506224602 -17 334 1.6 4.8 0.00 0.00 0.00 86 1011.6